[[{"header":{"parameterUnit":"m.s-1","parameterCategory":1,"la1":30.2991,"la2":30.254,"lo1":-89.0895,"lo2":-89.0444,"dy":0.0017,"dx":0.0017,"nx":28,"ny":28,"refTime":"2025-08-23T09:00:00:Z","depth":0,"parameterNumber":2,"parameterNumberName":"U-component_of_WINDS"},"data":[0,0,0,0,0,0,0,0,0,0,0,0,0,0,0,0,0,0,0,0,0,0,0,0,0,0,0,0,0,0,0,0,0,0,0,0,0,0,0,0,0,0,0,0,0,0,0,0,0,0,0,0,0,0,0,0,0,0,-0.0363,-0.0364,0,-0.0403,-0.0403,-0.0404,-0.0407,-0.0406,-0.0406,-0.0405,-0.0447,-0.0449,-0.045,0,0,0,0,0,0,0,0,0,0,0,0,0,-0.029,-0.0291,-0.0363,-0.0364,-0.0364,-0.0403,-0.0403,-0.0404,-0.0407,-0.0406,-0.0406,-0.0405,-0.0447,-0.0448,-0.045,0,0,0,0,0,0,0,0,0,0,0,0,0,-0.0325,-0.0291,-0.0363,-0.037,-0.0371,-0.0403,-0.0403,-0.0404,-0.0407,-0.0406,-0.0405,-0.0405,-0.0446,-0.0448,-0.0451,-0.0478,0,0,-0.0458,-0.0459,0,0,0,0,0,0,0,0,-0.0323,-0.0327,-0.0368,-0.037,-0.0371,-0.0399,-0.0393,-0.0429,-0.0407,-0.0393,-0.0405,-0.0404,-0.0432,-0.0435,-0.0444,-0.048,-0.0482,-0.0458,-0.0459,-0.046,-0.0461,0,0,0,0,0,0,0,-0.032,-0.0326,-0.0379,-0.0369,-0.0371,-0.0371,-0.0376,-0.04,-0.0416,-0.0394,-0.0395,-0.0399,-0.0432,-0.0442,-0.0445,-0.0483,-0.0458,-0.046,-0.0461,-0.0462,-0.0542,-0.0543,0,0,0,0,0,0,-0.0316,-0.0324,-0.0378,-0.038,-0.0345,-0.0373,-0.0378,-0.0391,-0.0416,-0.0419,-0.04,-0.0399,-0.0438,-0.0443,-0.0447,-0.048,-0.046,-0.0462,-0.0464,-0.0542,-0.0543,-0.0543,0,0,0,0,0,0,-0.0315,-0.0321,-0.0376,-0.0352,-0.0359,-0.0375,-0.0389,-0.0392,-0.0402,-0.042,-0.0423,-0.0407,-0.0438,-0.0443,-0.047,-0.0482,-0.0463,-0.0465,-0.0541,-0.0542,-0.0543,-0.0548,0,0,0,0,0,0,-0.0313,-0.0321,-0.0331,-0.0352,-0.036,-0.0399,-0.039,-0.0393,-0.0405,-0.0405,-0.0427,-0.043,-0.0438,-0.0467,-0.0472,-0.0485,-0.0467,-0.054,-0.0541,-0.0543,-0.0547,-0.0549,-0.0551,0,0,0,0,0,-0.031,-0.0331,-0.0332,-0.0338,-0.0374,-0.0399,-0.0404,-0.0412,-0.0406,-0.0417,-0.0429,-0.0429,-0.0479,-0.0469,-0.0476,-0.0489,-0.0539,-0.0541,-0.0543,-0.0546,-0.0548,-0.0551,0,0,0,0,0,0,-0.0312,-0.0334,-0.0335,-0.0364,-0.0379,-0.04,-0.0414,-0.0415,-0.0433,-0.0432,-0.0442,-0.0447,-0.0473,-0.0484,-0.0472,-0.0517,-0.0509,-0.0512,-0.0509,-0.0512,-0.0514,-0.0511,-0.0469,0,0,0,0,0,-0.0316,-0.0334,-0.0353,-0.0376,-0.0384,-0.0398,-0.0409,-0.0414,-0.0431,-0.0438,-0.0451,-0.0468,-0.0487,-0.05,-0.0519,-0.0548,-0.0553,-0.056,-0.0562,-0.0564,-0.0566,-0.0582,-0.0585,-0.0549,-0.0549,-0.0549,0,0,-0.0324,-0.0338,-0.0349,-0.0377,-0.039,-0.0409,-0.0403,-0.0424,-0.0438,-0.0441,-0.0467,-0.0477,-0.0496,-0.0524,-0.0537,-0.0534,-0.0577,-0.0566,-0.0567,-0.0569,-0.0584,-0.0587,-0.059,-0.055,-0.055,-0.055,0,0,-0.0348,-0.0361,-0.0382,-0.0394,-0.0414,-0.0422,-0.0427,-0.0447,-0.0454,-0.048,-0.0482,-0.0499,-0.0533,-0.0546,-0.0557,-0.0585,-0.0586,-0.0591,-0.0602,-0.0617,-0.062,-0.0623,-0.0632,-0.0636,-0.0594,-0.0594,-0.0594,0,-0.0356,-0.0384,-0.0392,-0.0412,-0.0424,-0.0427,-0.0448,-0.046,-0.0485,-0.0493,-0.0489,-0.053,-0.0544,-0.0574,-0.0581,-0.059,-0.0596,-0.0589,-0.0619,-0.0622,-0.0624,-0.0633,-0.0637,-0.0594,-0.0594,-0.0594,-0.0594,0,-0.0392,-0.0412,-0.0426,-0.0449,-0.0463,-0.0484,-0.0495,-0.0507,-0.0511,-0.052,-0.0546,-0.0562,-0.0584,-0.0591,-0.0595,-0.0622,-0.0619,-0.0617,-0.0609,-0.0628,-0.0637,-0.064,-0.0595,-0.0595,-0.0595,-0.0595,0,0,-0.0419,-0.0446,-0.0451,-0.0461,-0.0482,-0.0498,-0.0518,-0.0539,-0.055,-0.0566,-0.0584,-0.0611,-0.0609,-0.0622,-0.0627,-0.064,-0.0661,-0.0636,-0.0637,-0.064,-0.0691,-0.0692,-0.0696,-0.0662,-0.0662,-0.0663,-0.0689,0,-0.0446,-0.0482,-0.0489,-0.052,-0.0538,-0.0541,-0.0559,-0.0574,-0.0582,-0.0599,-0.0609,-0.0628,-0.0624,-0.0631,-0.0645,-0.0656,-0.0671,-0.0654,-0.0678,-0.0678,-0.0672,-0.0701,-0.0703,-0.0727,-0.0693,-0.0693,-0.0694,0,-0.0481,-0.0498,-0.0531,-0.0549,-0.0557,-0.0573,-0.0592,-0.0608,-0.0625,-0.063,-0.0643,-0.0647,-0.0669,-0.066,-0.0689,-0.0677,-0.0687,-0.0694,-0.0695,-0.0697,-0.0687,-0.0704,-0.0735,-0.0738,-0.0699,-0.0699,-0.0698,0,-0.0497,-0.0528,-0.0552,-0.056,-0.0582,-0.0593,-0.0602,-0.0618,-0.063,-0.0647,-0.0655,-0.0674,-0.0685,-0.07,-0.0708,-0.0701,-0.0737,-0.0729,-0.0742,-0.0741,-0.0749,-0.0748,-0.0781,-0.0756,-0.0756,-0.0756,-0.0756,0,-0.0526,-0.0546,-0.0559,-0.0573,-0.0596,-0.0604,-0.0626,-0.0635,-0.0649,-0.0665,-0.0669,-0.0684,-0.0695,-0.0712,-0.0719,-0.0742,-0.0747,-0.0751,-0.0753,-0.0751,-0.075,-0.0758,-0.0756,-0.0757,-0.0756,-0.0756,-0.0756,0,-0.0547,-0.0557,-0.0583,-0.0601,-0.0606,-0.0621,-0.0637,-0.0651,-0.0659,-0.068,-0.0685,-0.0698,-0.0718,-0.0728,-0.0753,-0.0758,-0.0783,-0.0784,-0.0777,-0.0778,-0.079,-0.0789,-0.0829,-0.0835,-0.0806,-0.0806,-0.0806,0,-0.0565,-0.058,-0.0599,-0.061,-0.062,-0.0637,-0.0649,-0.0658,-0.067,-0.0689,-0.0701,-0.0721,-0.0737,-0.0769,-0.0781,-0.0799,-0.08,-0.0813,-0.0803,-0.08,-0.08,-0.0799,-0.08,-0.0815,-0.0815,-0.0815,-0.0816,0,-0.0594,-0.0598,-0.0615,-0.0633,-0.0647,-0.0662,-0.0676,-0.0685,-0.0696,-0.0709,-0.0729,-0.0742,-0.0767,-0.0786,-0.0806,-0.0816,-0.0817,-0.0819,-0.0823,-0.082,-0.0816,-0.0818,-0.0782,-0.0818,-0.0817,-0.0817,-0.0817,-0.0817,-0.0614,-0.0627,-0.0643,-0.0661,-0.0673,-0.0686,-0.07,-0.071,-0.0727,-0.0747,-0.0751,-0.0772,-0.0788,-0.0814,-0.0825,-0.0841,-0.0838,-0.0844,-0.0846,-0.0847,-0.0847,-0.0813,-0.0845,-0.0845,-0.0845,-0.0845,-0.0845,0,-0.0643,-0.0653,-0.067,-0.069,-0.0704,-0.0704,-0.072,-0.0732,-0.075,-0.0765,-0.078,-0.0803,-0.0822,-0.0835,-0.0854,-0.0864,-0.0866,-0.0869,-0.0868,-0.087,-0.0849,-0.0843,-0.0868,-0.0868,-0.0868,-0.0868,-0.0868,-0.0868,-0.066,-0.0683,-0.0688,-0.0716,-0.0726,-0.0746,-0.0755,-0.0768,-0.0779,-0.0804,-0.0819,-0.0828,-0.0841,-0.0861,-0.0878,-0.0882,-0.0888,-0.0892,-0.0895,-0.0874,-0.0872,-0.087,-0.0864,-0.0893,-0.0893,-0.0915,-0.0915,-0.0915]},{"header":{"parameterUnit":"m.s-1","parameterCategory":1,"la1":30.2991,"la2":30.254,"lo1":-89.0895,"lo2":-89.0444,"dy":0.0017,"dx":0.0017,"nx":28,"ny":28,"refTime":"2025-08-23T09:00:00:Z","depth":0,"parameterNumber":3,"parameterNumberName":"V-component_of_WINDS"},"data":[0,0,0,0,0,0,0,0,0,0,0,0,0,0,0,0,0,0,0,0,0,0,0,0,0,0,0,0,0,0,0,0,0,0,0,0,0,0,0,0,0,0,0,0,0,0,0,0,0,0,0,0,0,0,0,0,0,0,-2.3155,-2.3156,0,-2.3252,-2.3253,-2.3254,-2.3235,-2.3233,-2.3231,-2.323,-2.3331,-2.3335,-2.3339,0,0,0,0,0,0,0,0,0,0,0,0,0,-2.2957,-2.2961,-2.3155,-2.3157,-2.3158,-2.3252,-2.3253,-2.3254,-2.3235,-2.3233,-2.3231,-2.3229,-2.3329,-2.3334,-2.334,0,0,0,0,0,0,0,0,0,0,0,0,0,-2.3047,-2.2962,-2.3155,-2.3159,-2.3161,-2.3251,-2.3253,-2.3255,-2.3236,-2.3233,-2.323,-2.3228,-2.3328,-2.3334,-2.334,-2.3434,0,0,-2.336,-2.3363,0,0,0,0,0,0,0,0,-2.3042,-2.3055,-2.3158,-2.3159,-2.3161,-2.3229,-2.322,-2.3315,-2.3236,-2.3207,-2.323,-2.3226,-2.3299,-2.3308,-2.3332,-2.3438,-2.3443,-2.3361,-2.3365,-2.3368,-2.3369,0,0,0,0,0,0,0,-2.3036,-2.305,-2.3194,-2.3159,-2.3161,-2.3157,-2.3167,-2.3238,-2.3267,-2.321,-2.3208,-2.322,-2.3299,-2.3326,-2.3334,-2.3444,-2.3361,-2.3366,-2.3371,-2.3373,-2.3633,-2.3636,0,0,0,0,0,0,-2.3028,-2.3045,-2.3191,-2.3197,-2.3094,-2.3163,-2.3174,-2.321,-2.3266,-2.3272,-2.3222,-2.3219,-2.3316,-2.3326,-2.3337,-2.3451,-2.3368,-2.3374,-2.3377,-2.363,-2.3634,-2.3637,0,0,0,0,0,0,-2.3024,-2.3041,-2.3187,-2.3121,-2.3139,-2.3169,-2.3209,-2.3213,-2.3239,-2.3276,-2.3281,-2.3243,-2.3314,-2.3328,-2.341,-2.3454,-2.3377,-2.3383,-2.3627,-2.3631,-2.3635,-2.3678,0,0,0,0,0,0,-2.3018,-2.304,-2.3075,-2.3122,-2.3142,-2.3257,-2.3212,-2.3217,-2.325,-2.3246,-2.3297,-2.3303,-2.3313,-2.34,-2.3416,-2.3462,-2.3388,-2.3623,-2.3629,-2.3634,-2.3673,-2.3683,-2.3692,0,0,0,0,0,-2.3011,-2.3083,-2.3077,-2.3094,-2.3187,-2.3259,-2.3271,-2.3281,-2.3253,-2.3289,-2.3313,-2.3301,-2.3446,-2.3409,-2.3427,-2.3475,-2.362,-2.3627,-2.3633,-2.3668,-2.3681,-2.3692,0,0,0,0,0,0,-2.3041,-2.3089,-2.3083,-2.3172,-2.3212,-2.3256,-2.3302,-2.3295,-2.3344,-2.3338,-2.3349,-2.3361,-2.3444,-2.3467,-2.3424,-2.3568,-2.3529,-2.354,-2.355,-2.3562,-2.3572,-2.3565,-2.3393,0,0,0,0,0,-2.3058,-2.3113,-2.3152,-2.3227,-2.3247,-2.3271,-2.3303,-2.3307,-2.3349,-2.3366,-2.3395,-2.3437,-2.3493,-2.3529,-2.3581,-2.3676,-2.3687,-2.3718,-2.3728,-2.3735,-2.3745,-2.3797,-2.3811,-2.3659,-2.3659,-2.3659,0,0,-2.3094,-2.3127,-2.3161,-2.3234,-2.3265,-2.3322,-2.3285,-2.3347,-2.3389,-2.3376,-2.3454,-2.3478,-2.3525,-2.3613,-2.3654,-2.3636,-2.3789,-2.3744,-2.375,-2.3755,-2.3806,-2.382,-2.3833,-2.3664,-2.3663,-2.3662,0,0,-2.3189,-2.3219,-2.3285,-2.3317,-2.3364,-2.338,-2.3396,-2.3441,-2.3456,-2.3535,-2.3526,-2.3577,-2.3672,-2.3706,-2.3736,-2.3844,-2.3835,-2.3861,-2.3913,-2.3964,-2.3976,-2.3986,-2.4025,-2.4039,-2.387,-2.387,-2.387,0,-2.3228,-2.3312,-2.332,-2.3382,-2.3415,-2.3405,-2.3472,-2.3503,-2.3566,-2.3589,-2.3567,-2.3686,-2.3718,-2.3814,-2.3841,-2.3865,-2.3884,-2.3855,-2.3973,-2.3984,-2.3994,-2.4031,-2.4046,-2.3873,-2.3873,-2.3872,-2.3872,0,-2.3357,-2.3416,-2.3464,-2.3524,-2.3562,-2.3627,-2.3645,-2.3683,-2.3684,-2.3702,-2.3783,-2.3821,-2.3881,-2.3904,-2.3906,-2.4002,-2.3989,-2.397,-2.3931,-2.4011,-2.4047,-2.4061,-2.3877,-2.3876,-2.3875,-2.3875,0,0,-2.3473,-2.3537,-2.3555,-2.3582,-2.3634,-2.368,-2.3745,-2.3803,-2.3836,-2.3879,-2.3934,-2.4015,-2.3998,-2.4032,-2.4038,-2.4082,-2.4166,-2.4058,-2.4059,-2.4077,-2.4275,-2.4289,-2.4305,-2.416,-2.4163,-2.4165,-2.4271,0,-2.3573,-2.3686,-2.3695,-2.3797,-2.3852,-2.3843,-2.39,-2.3938,-2.3957,-2.4007,-2.4028,-2.4085,-2.4058,-2.4078,-2.4122,-2.4147,-2.4206,-2.4139,-2.4213,-2.4215,-2.4201,-2.4324,-2.4339,-2.4436,-2.4285,-2.4287,-2.4289,0,-2.3704,-2.3751,-2.3858,-2.3903,-2.3926,-2.3977,-2.4031,-2.4079,-2.4122,-2.4133,-2.4171,-2.4171,-2.4238,-2.4197,-2.4291,-2.4245,-2.4276,-2.4292,-2.4296,-2.4304,-2.4257,-2.4335,-2.4468,-2.4483,-2.4311,-2.4309,-2.4307,0,-2.3778,-2.3869,-2.3945,-2.3968,-2.4022,-2.4058,-2.4082,-2.4123,-2.4158,-2.4206,-2.4229,-2.4284,-2.4315,-2.4358,-2.4374,-2.4342,-2.4467,-2.4427,-2.4479,-2.4478,-2.4506,-2.4504,-2.4646,-2.4525,-2.4524,-2.4524,-2.4524,0,-2.3888,-2.3955,-2.3979,-2.4026,-2.41,-2.4111,-2.4184,-2.4206,-2.4243,-2.4295,-2.4291,-2.434,-2.4357,-2.4409,-2.4421,-2.4497,-2.4511,-2.4522,-2.4525,-2.4523,-2.4522,-2.4544,-2.4537,-2.4528,-2.4527,-2.4526,-2.4526,0,-2.3984,-2.4003,-2.4085,-2.413,-2.4142,-2.4195,-2.4233,-2.4279,-2.4297,-2.4363,-2.4379,-2.4407,-2.4468,-2.4488,-2.4562,-2.457,-2.4659,-2.4656,-2.4644,-2.4645,-2.4696,-2.4691,-2.4857,-2.488,-2.4743,-2.4744,-2.4746,0,-2.4053,-2.4104,-2.4154,-2.4188,-2.4213,-2.4268,-2.4303,-2.4316,-2.4353,-2.4407,-2.4447,-2.4507,-2.4556,-2.4654,-2.4682,-2.4739,-2.4737,-2.4791,-2.4746,-2.4742,-2.4739,-2.4736,-2.4741,-2.48,-2.4801,-2.4803,-2.4804,0,-2.4174,-2.4181,-2.4232,-2.4286,-2.4328,-2.4371,-2.4413,-2.4442,-2.4461,-2.4503,-2.4565,-2.4603,-2.4678,-2.4738,-2.4796,-2.4822,-2.4817,-2.4818,-2.4833,-2.4832,-2.4823,-2.4829,-2.4668,-2.4814,-2.4813,-2.4812,-2.4812,-2.4811,-2.4259,-2.4304,-2.4346,-2.4403,-2.4436,-2.4475,-2.452,-2.4544,-2.4595,-2.4657,-2.4662,-2.4729,-2.4773,-2.485,-2.4879,-2.4932,-2.4917,-2.4939,-2.4944,-2.4949,-2.4954,-2.4814,-2.4943,-2.4943,-2.4942,-2.4942,-2.4942,0,-2.4381,-2.4407,-2.4459,-2.4518,-2.4563,-2.4553,-2.4599,-2.4637,-2.4696,-2.4737,-2.4785,-2.4857,-2.4915,-2.4948,-2.5007,-2.5043,-2.5042,-2.5058,-2.5056,-2.5062,-2.4964,-2.4945,-2.5058,-2.5058,-2.5058,-2.5058,-2.5058,-2.5058,-2.4449,-2.4524,-2.4536,-2.4628,-2.4655,-2.472,-2.4747,-2.4784,-2.4817,-2.4897,-2.4945,-2.4966,-2.5004,-2.5065,-2.5119,-2.5127,-2.5149,-2.5167,-2.5174,-2.5081,-2.5069,-2.5058,-2.504,-2.5172,-2.5172,-2.5268,-2.5269,-2.5269]}]]